Date String (YYYY-MM-DD hh:mm:ss) UTC,Instrument flags,Ambient pressure (hPa),Sample flow (lpm),Bypass flow (lpm),Sample temperature (°C),Ambient temperature (°C),ASC tube jacket temperature (°C),LED temperature (°C),Box temperature (°C),Sample RH (%),Span deviation,Mass concentration (μg/m³),Mass concentration (μg/m³),Mass concentration (μg/m³)
DateTimeUTC,F1_M11,P_M11,Q1_M11,Q2_M11,T1_M11,T2_M11,T3_M11,T4_M11,T5_M11,U1_M11,ZSPAN_M11,X0_M11,X2_M11,X1_M11
2022-12-29 21:00:00,,0817.5,4.99,0.00,22.9,21.5,00.0,31.9,24.7,08.4,0000.0,0002.87,0002.08,0001.83
2022-12-29 21:01:00,,0817.5,4.99,0.00,22.9,21.5,00.0,31.9,24.7,08.5,0000.0,0002.86,0002.13,0001.91
2022-12-29 21:02:00,,0817.6,4.98,0.00,22.9,21.4,00.0,31.9,24.6,08.5,0000.0,0002.76,0002.14,0001.95
2022-12-29 21:03:00,,0817.5,4.98,0.00,22.9,21.2,00.0,31.9,24.5,08.7,0000.0,0002.84,0002.22,0002.03
2022-12-29 21:04:00,,0817.5,4.99,0.00,22.8,21.1,00.0,31.8,24.5,08.6,0000.0,0002.92,0002.30,0002.10
2022-12-29 21:05:00,,0817.5,5.07,0.00,22.8,21.0,00.0,31.8,24.4,08.3,0000.0,0003.68,0002.30,0002.11
2022-12-29 21:06:00,,0817.5,4.98,0.00,22.7,21.0,00.0,31.8,24.4,08.5,0000.0,0004.08,0002.34,0002.17
2022-12-29 21:07:00,,0817.6,4.98,0.00,22.7,21.0,00.0,31.8,24.4,09.6,0000.0,0004.22,0002.47,0002.29
2022-12-29 21:08:00,,0817.7,4.96,0.00,22.7,21.1,00.0,31.7,24.4,10.0,0000.0,0004.43,0002.67,0002.46
2022-12-29 21:09:00,,0817.6,5.01,0.00,22.7,21.2,00.0,31.7,24.4,10.2,0000.0,0004.60,0002.81,0002.61
2022-12-29 21:10:00,,0817.6,5.02,0.00,22.7,21.2,00.0,31.7,24.5,10.6,0000.0,0004.82,0002.97,0002.74
2022-12-29 21:11:00,,0817.6,5.05,0.00,22.7,21.4,00.0,31.7,24.5,09.6,0000.0,0004.82,0003.03,0002.81
2022-12-29 21:12:00,,0817.7,4.99,0.00,22.7,21.5,00.0,31.7,24.5,09.4,0000.0,0004.74,0003.04,0002.81
2022-12-29 21:13:00,,0817.7,4.99,0.00,22.8,21.5,00.0,31.7,24.5,09.7,0000.0,0004.90,0003.10,0002.83
2022-12-29 21:14:00,,0817.9,4.96,0.00,22.8,21.6,00.0,31.7,24.6,10.6,0000.0,0005.13,0003.20,0002.95
2022-12-29 21:15:00,,0817.6,4.98,0.00,22.8,21.7,00.0,31.7,24.6,09.5,0000.0,0005.18,0003.24,0003.02
2022-12-29 21:16:00,,0817.6,5.01,0.00,22.8,21.7,00.0,31.7,24.6,07.1,0000.0,0004.47,0003.20,0002.95
2022-12-29 21:17:00,,0817.5,5.04,0.00,22.8,21.7,00.0,31.7,24.6,07.2,0000.0,0003.90,0003.13,0002.81
2022-12-29 21:18:00,,0817.5,5.00,0.00,22.8,21.6,00.0,31.7,24.6,07.4,0000.0,0003.73,0002.96,0002.64
2022-12-29 21:19:00,,0817.5,4.97,0.00,22.8,21.5,00.0,31.7,24.6,07.2,0000.0,0003.40,0002.67,0002.39
2022-12-29 21:20:00,,0817.5,4.98,0.00,22.8,21.5,00.0,31.7,24.6,06.9,0000.0,0003.05,0002.39,0002.13
2022-12-29 21:21:00,,0817.5,4.97,0.00,22.8,21.5,00.0,31.7,24.6,07.2,0000.0,0002.69,0002.09,0001.85
2022-12-29 21:22:00,,0817.3,4.97,0.00,22.8,21.5,00.0,31.7,24.6,07.3,0000.0,0002.36,0001.83,0001.62
2022-12-29 21:23:00,,0817.2,5.02,0.00,22.8,21.4,00.0,31.7,24.6,07.6,0000.0,0002.25,0001.65,0001.45
2022-12-29 21:24:00,,0817.4,5.00,0.00,22.8,21.4,00.0,31.7,24.5,07.4,0000.0,0001.96,0001.42,0001.25
2022-12-29 21:25:00,,0817.4,5.01,0.00,22.8,21.3,00.0,31.7,24.5,07.4,0000.0,0001.63,0001.06,0000.94
2022-12-29 21:26:00,,0817.6,4.98,0.00,22.8,21.2,00.0,31.7,24.4,07.2,0000.0,0001.66,0000.80,0000.69
2022-12-29 21:27:00,,0817.7,4.97,0.00,22.7,21.2,00.0,31.7,24.4,07.6,0000.0,0001.66,0000.74,0000.64
2022-12-29 21:28:00,,0817.9,5.00,0.00,22.7,21.1,00.0,31.7,24.2,08.2,0000.0,0002.07,0000.75,0000.64
2022-12-29 21:29:00,,0818.0,5.06,0.00,22.7,21.0,00.0,31.6,24.1,10.1,0000.0,0002.43,0001.04,0000.86
2022-12-29 21:30:00,,0818.0,5.02,0.00,22.6,20.9,00.0,31.6,24.1,10.5,0000.0,0003.42,0001.47,0001.19
2022-12-29 21:31:00,,0818.0,4.99,0.00,22.5,20.8,00.0,31.6,24.0,10.4,0000.0,0004.78,0001.91,0001.53
2022-12-29 21:32:00,,0818.0,5.03,0.00,22.4,20.6,00.0,31.6,23.9,10.1,0000.0,0005.40,0002.34,0001.87
2022-12-29 21:33:00,,0818.0,4.97,0.00,22.4,20.4,00.0,31.5,23.8,09.5,0000.0,0005.88,0002.68,0002.13
2022-12-29 21:34:00,,0818.0,5.01,0.00,22.3,20.3,00.0,31.5,23.8,09.5,0000.0,0006.23,0002.99,0002.41
2022-12-29 21:35:00,,0818.0,4.98,0.00,22.3,20.4,00.0,31.4,23.8,08.6,0000.0,0006.60,0003.15,0002.59
2022-12-29 21:36:00,,0818.0,5.00,0.00,22.2,20.5,00.0,31.4,23.8,08.6,0000.0,0006.97,0003.24,0002.71
2022-12-29 21:37:00,,0818.0,4.98,0.00,22.2,20.5,00.0,31.4,23.7,07.9,0000.0,0006.83,0003.30,0002.78
2022-12-29 21:38:00,,0818.0,4.98,0.00,22.2,20.5,00.0,31.3,23.7,07.4,0000.0,0006.90,0003.32,0002.80
2022-12-29 21:39:00,,0818.0,5.01,0.00,22.2,20.5,00.0,31.3,23.7,07.4,0000.0,0006.39,0003.31,0002.79
2022-12-29 21:40:00,,0818.0,5.04,0.00,22.1,20.5,00.0,31.3,23.7,07.6,0000.0,0006.01,0003.15,0002.60
2022-12-29 21:41:00,,0818.0,5.01,0.00,22.1,20.4,00.0,31.3,23.6,07.7,0000.0,0005.26,0002.84,0002.31
2022-12-29 21:42:00,,0818.0,4.99,0.00,22.0,20.2,00.0,31.2,23.5,08.2,0000.0,0004.33,0002.55,0002.08
2022-12-29 21:43:00,,0817.9,4.98,0.00,22.0,20.3,00.0,31.2,23.5,08.0,0000.0,0004.10,0002.27,0001.87
2022-12-29 21:44:00,,0818.0,4.97,0.00,22.0,20.3,00.0,31.1,23.5,07.3,0000.0,0003.74,0001.96,0001.64
2022-12-29 21:45:00,,0818.0,4.98,0.00,22.0,20.3,00.0,31.1,23.6,07.4,0000.0,0003.32,0001.64,0001.38
2022-12-29 21:46:00,,0818.0,4.98,0.00,22.0,20.3,00.0,31.1,23.5,07.7,0000.0,0003.07,0001.50,0001.24
2022-12-29 21:47:00,,0818.0,5.02,0.00,21.9,20.2,00.0,31.0,23.4,07.8,0000.0,0002.81,0001.42,0001.16
2022-12-29 21:48:00,,0818.0,5.01,0.00,21.9,20.1,00.0,31.0,23.4,08.0,0000.0,0002.76,0001.40,0001.16
2022-12-29 21:49:00,,0818.0,5.01,0.00,21.8,20.1,00.0,31.0,23.3,07.7,0000.0,0002.65,0001.41,0001.20
2022-12-29 21:50:00,,0818.0,4.97,0.00,21.8,20.2,00.0,30.9,23.4,07.3,0000.0,0002.69,0001.43,0001.21
2022-12-29 21:51:00,,0818.0,4.97,0.00,21.8,20.1,00.0,30.9,23.3,07.3,0000.0,0003.39,0001.43,0001.19
2022-12-29 21:52:00,,0818.0,5.02,0.00,21.7,20.1,00.0,30.9,23.3,07.5,0000.0,0004.08,0001.39,0001.15
2022-12-29 21:53:00,,0817.8,5.00,0.00,21.7,20.0,00.0,30.9,23.2,07.5,0000.0,0003.57,0001.26,0001.05
2022-12-29 21:54:00,,0817.9,4.97,0.00,21.7,20.0,00.0,30.8,23.2,07.3,0000.0,0003.15,0001.09,0000.90
2022-12-29 21:55:00,,0817.9,5.00,0.00,21.7,20.0,00.0,30.8,23.2,07.3,0000.0,0003.03,0001.05,0000.87
2022-12-29 21:56:00,,0818.0,4.99,0.00,21.7,19.9,00.0,30.8,23.2,07.3,0000.0,0002.96,0001.04,0000.85
2022-12-29 21:57:00,,0817.9,4.97,0.00,21.7,20.2,00.0,30.7,23.3,07.8,0000.0,0002.93,0000.96,0000.80
2022-12-29 21:58:00,,0818.0,4.97,0.00,21.7,21.0,00.0,30.6,23.6,07.3,0000.0,0002.72,0000.85,0000.72
2022-12-29 21:59:00,,0818.0,5.00,0.00,21.9,22.0,00.0,30.6,23.9,07.5,0000.0,0002.57,0000.76,0000.64
